Weather History for Grant County, OR

Change the Weather History Date:

Wednesday, October 16, 2013

  Actual Average (KBNO) Record (KBNO)
Temperature  
Mean Temperature 49 °F 45 °F  
Max Temperature 62 °F 62 °F 80 °F (1961)
Min Temperature 36 °F 27 °F 13 °F (1999)
Degree Days  
Heating Degree Days 16 20  
Month to date heating degree days 283  
Since 1 July heating degree days 702  
Cooling Degree Days 0 0  
Month to date cooling degree days 0  
Year to date cooling degree days 215  
Moisture  
Dew Point 29 °F    
Average Humidity 53    
Maximum Humidity 75    
Minimum Humidity 24    
Precipitation  
Precipitation 0.00 in 0.02 in 0.29 in (2007)
Month to date precipitation 0.33  
Year to date precipitation 7.75  
Sea Level Pressure  
Sea Level Pressure 30.14 in    
Wind  
Wind Speed 7 mph (SSW)    
Max Wind Speed 12 mph    
Max Gust Speed 16 mph    
Visibility 10 miles    
Events      
T = Trace of Precipitation, MM = Missing Value Source: NWS Daily Summary

Daily Weather History Graph

Daily Weather History Graph

Search for Another Location

Airport:

Trip Planner

Search our weather history database for the weather conditions in past years. The results will help you decide how hot, cold, wet, or windy it might be!

Date:

Astronomy

Oct. 16, 2013 Rise Set
Actual Time 7:12 AM PDT 6:09 PM PDT
Civil Twilight 6:43 AM PDT 6:38 PM PDT
Nautical Twilight 6:09 AM PDT 7:12 PM PDT
Astronomical Twilight 5:35 AM PDT 7:45 PM PDT
Moon 4:55 PM PDT (10/16) 4:41 AM PDT (10/16)
Length of Visible Light 11h 55m
Length of Day
10h 56m
Waxing Gibbous, 94% of the Moon is Illuminated
Oct 16
Waxing Gibbous
Oct 18
Full
Oct 26
Last Quarter
Nov 3
New
Nov 9
First Quarter

Hourly Weather History & Observations

Time (PDT) Temp. Windchill Dew Point Humidity Pressure Visibility Wind Dir Wind Speed Gust Speed Precip Events Conditions
12:15 AM 40.3 °F 34.9 °F 30.0 °F 67% 30.20 in 10.0 mi East 8.1 mph - N/A   Clear
12:35 AM 38.1 °F 33.7 °F 30.6 °F 74% 30.20 in 10.0 mi ESE 5.8 mph - N/A   Clear
12:55 AM 38.7 °F 33.6 °F 30.6 °F 73% 30.20 in 10.0 mi ESE 6.9 mph - N/A   Clear
1:15 AM 38.3 °F 31.9 °F 30.0 °F 72% 30.19 in 10.0 mi ESE 9.2 mph - N/A   Clear
1:35 AM 39.2 °F 34.2 °F 29.1 °F 67% 30.19 in 10.0 mi ESE 6.9 mph - N/A   Clear
1:55 AM 39.2 °F 32.5 °F 29.8 °F 69% 30.19 in 10.0 mi East 10.4 mph - N/A   Clear
2:15 AM 38.7 °F 32.4 °F 30.2 °F 72% 30.19 in 10.0 mi ESE 9.2 mph - N/A   Clear
2:35 AM 38.3 °F 33.2 °F 30.0 °F 72% 30.18 in 10.0 mi East 6.9 mph - N/A   Clear
2:55 AM 37.4 °F 30.3 °F 30.0 °F 75% 30.17 in 10.0 mi ESE 10.4 mph - N/A   Clear
3:15 AM 37.0 °F 31.0 °F 29.7 °F 75% 30.17 in 10.0 mi ESE 8.1 mph - N/A   Clear
3:35 AM 37.6 °F 30.5 °F 29.7 °F 73% 30.16 in 10.0 mi East 10.4 mph 16.1 mph N/A   Clear
3:55 AM 37.9 °F 32.1 °F 29.3 °F 71% 30.16 in 10.0 mi East 8.1 mph - N/A   Clear
4:15 AM 38.3 °F 31.9 °F 29.5 °F 71% 30.16 in 10.0 mi ESE 9.2 mph - N/A   Clear
4:35 AM 37.0 °F 29.8 °F 29.3 °F 74% 30.15 in 10.0 mi ESE 10.4 mph - N/A   Clear
4:55 AM 39.2 °F 33.0 °F 28.2 °F 65% 30.14 in 10.0 mi SE 9.2 mph - N/A   Clear
5:15 AM 38.1 °F 32.9 °F 28.0 °F 67% 30.14 in 10.0 mi SE 6.9 mph - N/A   Clear
5:35 AM 36.1 °F 29.3 °F 28.9 °F 75% 30.14 in 10.0 mi SE 9.2 mph - N/A   Clear
5:55 AM 38.8 °F 33.2 °F 28.4 °F 66% 30.14 in 10.0 mi ESE 8.1 mph - N/A   Clear
6:15 AM 38.5 °F 31.1 °F 28.8 °F 68% 30.14 in 10.0 mi East 11.5 mph - N/A   Clear
6:35 AM 37.2 °F 31.2 °F 29.1 °F 73% 30.14 in 10.0 mi East 8.1 mph - N/A   Clear
6:55 AM 36.5 °F 31.0 °F 29.1 °F 75% 30.14 in 10.0 mi East 6.9 mph - N/A   Clear
7:15 AM 36.5 °F 29.2 °F 29.3 °F 75% 30.15 in 10.0 mi ESE 10.4 mph - N/A   Clear
7:35 AM 37.9 °F 32.1 °F 28.2 °F 68% 30.15 in 10.0 mi ESE 8.1 mph - N/A   Clear
7:55 AM 39.9 °F 34.5 °F 29.3 °F 66% 30.15 in 10.0 mi SE 8.1 mph - N/A   Clear
8:15 AM 37.8 °F 33.3 °F 29.1 °F 71% 30.15 in 10.0 mi ESE 5.8 mph - N/A   Clear
8:35 AM 39.4 °F 34.5 °F 29.5 °F 68% 30.15 in 10.0 mi SE 6.9 mph - N/A   Clear
8:55 AM 41.4 °F 36.8 °F 29.5 °F 63% 30.16 in 10.0 mi ESE 6.9 mph - N/A   Clear
9:15 AM 43.7 °F 40.3 °F 30.2 °F 59% 30.15 in 10.0 mi ESE 5.8 mph - N/A   Clear
9:35 AM 45.5 °F 42.5 °F 28.6 °F 52% 30.15 in 10.0 mi ESE 5.8 mph - N/A   Clear
9:55 AM 47.3 °F - 30.0 °F 51% 30.15 in 10.0 mi East 4.6 mph - N/A   Clear
10:15 AM 48.4 °F - 30.0 °F 49% 30.15 in 10.0 mi ESE 3.5 mph - N/A   Clear
10:35 AM 50.5 °F - 28.9 °F 43% 30.15 in 10.0 mi Calm Calm - N/A   Clear
10:55 AM 51.8 °F - 29.1 °F 42% 30.15 in 10.0 mi Calm Calm - N/A   Clear
11:15 AM 52.9 °F - 28.9 °F 40% 30.14 in 10.0 mi Calm Calm - N/A   Clear
11:35 AM 53.8 °F - 31.8 °F 43% 30.14 in 10.0 mi NW 4.6 mph - N/A   Clear
11:55 AM 55.0 °F - 32.2 °F 42% 30.14 in 10.0 mi West 5.8 mph - N/A   Clear
12:15 PM 56.5 °F - 32.4 °F 40% 30.14 in 10.0 mi West 3.5 mph - N/A   Clear
12:35 PM 57.4 °F - 32.0 °F 38% 30.14 in 10.0 mi WNW 5.8 mph - N/A   Clear
12:55 PM 58.5 °F - 30.0 °F 34% 30.13 in 10.0 mi West 4.6 mph - N/A   Clear
1:15 PM 59.4 °F - 28.4 °F 31% 30.12 in 10.0 mi West 5.8 mph - N/A   Clear
1:35 PM 60.3 °F - 28.0 °F 29% 30.12 in 10.0 mi West 6.9 mph - N/A   Clear
1:55 PM 61.3 °F - 27.3 °F 27% 30.11 in 10.0 mi WNW 5.8 mph - N/A   Clear
2:15 PM 61.0 °F - 27.0 °F 27% 30.11 in 10.0 mi West 6.9 mph - N/A   Clear
2:35 PM 62.6 °F - 27.5 °F 26% 30.11 in 10.0 mi WSW 9.2 mph - N/A   Clear
2:55 PM 62.4 °F - 25.9 °F 25% 30.10 in 10.0 mi West 9.2 mph - N/A   Clear
3:15 PM 61.9 °F - 27.3 °F 27% 30.10 in 10.0 mi WNW 8.1 mph - N/A   Clear
3:35 PM 62.6 °F - 26.2 °F 25% 30.10 in 10.0 mi West 9.2 mph - N/A   Clear
3:55 PM 62.1 °F - 25.0 °F 24% 30.10 in 10.0 mi West 9.2 mph - N/A   Scattered Clouds
4:15 PM 62.4 °F - 24.8 °F 24% 30.10 in 10.0 mi West 9.2 mph - N/A   Clear
4:35 PM 61.9 °F - 26.2 °F 26% 30.10 in 10.0 mi West 8.1 mph - N/A   Clear
4:55 PM 60.8 °F - 27.9 °F 29% 30.10 in 10.0 mi West 10.4 mph - N/A   Clear
5:15 PM 59.0 °F - 27.9 °F 31% 30.10 in 10.0 mi West 6.9 mph - N/A   Clear
5:35 PM 58.5 °F - 30.0 °F 34% 30.10 in 10.0 mi WNW 6.9 mph - N/A   Scattered Clouds
5:55 PM 57.2 °F - 30.2 °F 36% 30.11 in 10.0 mi West 10.4 mph - N/A   Scattered Clouds
6:35 PM 54.1 °F - 28.2 °F 37% 30.12 in 10.0 mi WSW 6.9 mph - N/A   Clear
6:55 PM 54.3 °F - 28.4 °F 37% 30.13 in 10.0 mi WSW 3.5 mph - N/A   Clear
7:15 PM 52.9 °F - 28.4 °F 39% 30.13 in 10.0 mi WSW 3.5 mph - N/A   Clear
7:35 PM 52.5 °F - 29.5 °F 41% 30.14 in 10.0 mi Calm Calm - N/A   Clear
7:55 PM 50.7 °F - 29.7 °F 44% 30.14 in 10.0 mi SSW 4.6 mph - N/A   Clear
8:15 PM 49.6 °F - 29.7 °F 46% 30.14 in 10.0 mi WSW 3.5 mph - N/A   Clear
8:35 PM 48.7 °F - 29.5 °F 47% 30.14 in 10.0 mi SW 4.6 mph - N/A   Clear
8:55 PM 48.6 °F - 29.8 °F 48% 30.15 in 10.0 mi SW 4.6 mph - N/A   Clear
9:15 PM 48.0 °F - 30.4 °F 51% 30.15 in 10.0 mi WSW 4.6 mph - N/A   Clear
9:35 PM 44.6 °F 43.1 °F 30.7 °F 58% 30.16 in 10.0 mi SW 3.5 mph - N/A   Clear
9:55 PM 45.5 °F 42.5 °F 31.1 °F 57% 30.16 in 10.0 mi WSW 5.8 mph - N/A   Clear
10:15 PM 44.6 °F 41.4 °F 31.6 °F 60% 30.16 in 10.0 mi SW 5.8 mph - N/A   Clear
10:35 PM 44.2 °F 41.0 °F 32.0 °F 62% 30.17 in 10.0 mi SW 5.8 mph - N/A   Clear
10:55 PM 45.1 °F 42.8 °F 32.0 °F 60% 30.17 in 10.0 mi SW 4.6 mph - N/A   Clear
11:15 PM 44.8 °F 42.4 °F 32.0 °F 61% 30.17 in 10.0 mi WSW 4.6 mph - N/A   Clear
11:35 PM 43.7 °F 40.3 °F 32.0 °F 63% 30.17 in 10.0 mi WSW 5.8 mph - N/A   Clear
11:55 PM 42.8 °F 40.1 °F 32.0 °F 66% 30.17 in 10.0 mi WSW 4.6 mph - N/A   Clear